Binar 3
1 60957U 98067WX  24291.77286392  .00415140  00000-0  26103-2 0  9998
2 60957  51.6250  64.2887 0006108 344.3754  15.7055 15.74934235  9698
CySat-1
1 61501U 98067WZ  24291.51758430  .00132108  00000-0  20613-2 0  9993
2 61501  51.6377  69.3504 0008178  92.6902 267.5024 15.52845604  1459
DORA
1 61502U 98067XA  24291.77158966  .00195855  00000-0  28869-2 0  9999
2 61502  51.6377  68.0460 0006003  70.0314 290.1323 15.54177145  1486
